Weather in San Jose

Costa Rica     9°56′05″N   84°05′04″W
temp.,
°C
wind,
m/s
gust,
m/s
humid.,
%
clouds,
%
prec.,
mm/h
press.,
hPa
HPBL,
m
3 december, fri
fri300:00+13ene369878 0.0 1016225
03:00+14ene379766 0.0 1013276
06:00+14ene369725 0.0 1015182
09:00+20ne247349 0.0 1015914
12:00+19ne348549 1.1 1013681
15:00+19ne348269 0.9 1010743
18:00+16ene2598100 1.9 1013343
21:00+16ene259999 1.1 1016472
4 december, sat
sat400:00+15ene369883 1.6 1015325
03:00+13ene369833 0.0 1014181
06:00+14ene369597 0.0 1015236
09:00+20ene356971 0.0 1016957
12:00+22ne364820 0.0 10131559
15:00+20ne45636 0.0 10111185
18:00+15ene249945 0.1 1014158
21:00+15ene359157 0.0 1016336
5 december, sun
sun500:00+13ene259832 0.0 1016145
03:00+13ene259833 0.0 1014149
06:00+14ene259854 0.0 1016163
09:00+19ene357625 0.1 1016890
12:00+22ne346232 0.3 10131380
15:00+20ne347234 0.3 1012997
18:00+15ene249776 0.5 1015187
21:00+14ene249819 0.0 1018126
6 december, mon
mon600:00+13ene249820 0.0 1016109
03:00+14ene249827 0.0 1015110
06:00+14ene259834 0.0 1017143
09:00+20ne346817 0.0 1017949
12:00+21ne337350 0.4 10141035
15:00+18ne249171 1.2 1013529
18:00+16ene249974 1.5 1015210
21:00+15ene359787 0.0 1016244
7 december, tue
tue700:00+14ene259948 0.0 1015184
03:00+15ene259792 0.0 1014258
06:00+15ene359481 0.0 1015308
09:00+19ne357530 0.0 1015833
12:00+22ne356327 0.2 10121378
15:00+20ne3572100 0.4 1010963
18:00+15ene249978 0.5 1013172
21:00+15ene259518 0.0 1015202